Simultaneous Nadir Overpasses (SNOs) Predictions

Prediction of SNOs between GOES-15 and LANDSAT-8 Satellite Orbit:

Table of predicted SNOs for the next 14.0 days since TLE Epoch: 2/18/2023
Index Date Time (GOES-15) GOES-15 Lat,Lon LANDSAT-8 Lat,Lon Distance(km) Time Diff (sec)
1 02/18/2023 18:39:32 -0.04,-128.17 -0.41,-126.49 191.24 80
2 02/19/2023 06:58:15 0.04,-128.19 -0.72,-131.68 396.52 80
3 02/21/2023 06:46:01 0.04,-128.17 -0.09,-128.71 62.29 80
4 02/23/2023 06:36:27 0.04,-128.14 0.56,-125.75 272.08 80
5 02/23/2023 18:55:01 -0.05,-128.10 0.58,-130.90 318.18 80
6 02/25/2023 18:42:46 -0.05,-128.07 -0.05,-127.93 16.10 80
7 02/27/2023 18:33:11 -0.05,-128.03 -0.70,-124.96 349.31 80
8 02/28/2023 06:51:53 0.06,-128.05 -0.40,-130.15 239.04 80
9 03/02/2023 06:42:18 0.06,-128.01 0.23,-127.18 94.12 80
10 03/02/2023 19:00:52 -0.07,-127.97 0.83,-132.34 495.92 80
